OE9FWV Weather Reports


Display with metric or nautical units.
time (UTC)temp
F
wind
direction
speed
MPH
gust
MPH
rain 1hr
in
rain 24hr
in
rain mn
in
humidity
%
barometer
mb
20260502162752 76 345 3.0 10.0 0.00 0.00 0.00 32 1015.9
20260502161748 77 341 5.0 7.0 0.00 0.00 0.00 31 1016.0
20260502151724 77 2 5.0 11.0 0.00 0.00 0.00 33 1016.6
20260502150716 77 356 9.0 9.0 0.00 0.00 0.00 34 1016.7
20260502130617 75 333 4.0 12.0 0.00 0.00 0.00 38 1018.2
20260502123602 76 346 8.0 9.0 0.00 0.00 0.00 41 1018.6
20260502122602 77 18 7.0 12.0 0.00 0.00 0.00 40 1018.7
20260502115548 78 329 9.0 11.0 0.00 0.00 0.00 44 1019.3
20260502114547 78 328 10.0 10.0 0.00 0.00 0.00 42 1019.5
20260502113541 78 337 4.0 8.0 0.00 0.00 0.00 43 1019.6
20260502112533 78 338 5.0 9.0 0.00 0.00 0.00 42 1019.8
20260502111533 78 315 8.0 9.0 0.00 0.00 0.00 42 1020.1
20260502110531 77 303 8.0 8.0 0.00 0.00 0.00 41 1020.2
20260502105528 77 325 5.0 5.0 0.00 0.00 0.00 44 1020.3
20260502104518 76 327 4.0 5.0 0.00 0.00 0.00 45 1020.3
20260502101507 72 1 4.0 5.0 0.00 0.00 0.00 47 1020.9
20260502091443 72 339 2.0 4.0 0.00 0.00 0.00 48 1021.5
20260502090443 71 342 4.0 5.0 0.00 0.00 0.00 51 1021.7
20260502071406 62 241 0.0 0.0 0.00 0.00 0.00 58 1022.4
20260502062343 56 241 0.0 0.0 0.00 0.00 0.00 69 1022.9
20260502061339 55 241 0.0 0.0 0.00 0.00 0.00 70 1022.8
20260502060337 54 241 0.0 0.0 0.00 0.00 0.00 72 1022.9
20260502055335 53 241 0.0 0.0 0.00 0.00 0.00 74 1022.9
20260502054332 52 241 0.0 0.0 0.00 0.00 0.00 75 1023.0
20260502045316 49 241 0.0 0.0 0.00 0.00 0.00 77 1022.6
20260502044315 49 241 0.0 0.0 0.00 0.00 0.00 77 1022.7
20260502043310 50 241 0.0 0.0 0.00 0.00 0.00 76 1022.7
20260502042306 50 241 0.0 0.0 0.00 0.00 0.00 76 1022.6
20260502040302 50 241 0.0 0.0 0.00 0.00 0.00 76 1022.7
20260502035251 50 241 0.0 0.0 0.00 0.00 0.00 75 1022.5
20260502034247 50 241 0.0 1.0 0.00 0.00 0.00 75 1022.5
20260502033243 50 241 0.0 0.0 0.00 0.00 0.00 75 1022.5
20260502030238 51 241 0.0 0.0 0.00 0.00 0.00 73 1022.5
20260502025228 51 241 0.0 0.0 0.00 0.00 0.00 73 1022.6
20260502024218 52 241 0.0 0.0 0.00 0.00 0.00 72 1022.6
20260502023214 52 241 0.0 0.0 0.00 0.00 0.00 72 1022.7
20260502022214 52 241 0.0 0.0 0.00 0.00 0.00 72 1022.6
20260502021211 52 241 2.0 3.0 0.00 0.00 0.00 71 1022.6
20260502020200 52 243 1.0 2.0 0.00 0.00 0.00 70 1022.6
20260502015156 53 244 1.0 4.0 0.00 0.00 0.00 70 1022.6
20260502014156 53 246 4.0 4.0 0.00 0.00 0.00 68 1022.6
20260502013151 54 250 0.0 0.0 0.00 0.00 0.00 67 1022.6
20260502012143 54 251 2.0 3.0 0.00 0.00 0.00 67 1022.8
20260502011135 54 254 0.0 0.0 0.00 0.00 0.00 67 1022.8
20260502010135 54 254 2.0 2.0 0.00 0.00 0.00 66 1022.7
20260502004126 55 256 2.0 3.0 0.00 0.00 0.00 65 1022.9
20260502003119 56 256 0.0 0.0 0.00 0.00 0.00 64 1022.9
20260502001108 56 257 4.0 7.0 0.00 0.00 0.00 63 1022.8
20260501234056 57 244 2.0 2.0 0.00 0.00 0.00 61 1023.0
20260501233051 57 249 0.0 1.0 0.00 0.00 0.00 61 1023.0
20260501232045 57 248 6.0 6.0 0.00 0.00 0.00 60 1023.0
20260501231044 57 175 0.0 3.0 0.00 0.00 0.00 60 1023.0
20260501230043 59 175 0.0 0.0 0.00 0.00 0.00 58 1023.0
20260501225036 60 175 2.0 4.0 0.00 0.00 0.00 56 1023.0
20260501224029 61 175 1.0 1.0 0.00 0.00 0.00 54 1023.0
20260501223030 62 158 4.0 4.0 0.00 0.00 0.00 52 1023.1
20260501222030 62 144 8.0 12.0 0.00 0.00 0.00 52 1023.1
20260501221023 61 196 5.0 7.0 0.00 0.00 0.00 53 1023.2
20260501220020 61 129 5.0 8.0 0.00 0.00 0.00 54 1023.1
20260501213004 62 147 5.0 6.0 0.00 0.00 0.00 53 1023.0
20260501211959 62 152 2.0 7.0 0.00 0.00 0.00 53 1023.0
20260501210953 63 124 4.0 4.0 0.00 0.00 0.00 53 1022.8
20260501205952 63 150 8.0 13.0 0.00 0.00 0.00 52 1022.7
20260501204949 63 163 11.0 11.0 0.00 0.00 0.00 52 1022.7
20260501203944 63 141 11.0 11.0 0.00 0.00 0.00 52 1022.6
20260501202943 62 112 7.0 9.0 0.00 0.00 0.00 53 1022.6
20260501194927 61 1 0.0 0.0 0.00 0.00 0.00 53 1022.4
20260501193922 62 1 0.0 0.0 0.00 0.00 0.00 54 1022.4
20260501192922 63 1 0.0 0.0 0.00 0.00 0.00 54 1022.3
20260501191920 63 1 0.0 0.0 0.00 0.00 0.00 52 1022.2
20260501190914 64 1 0.0 0.0 0.00 0.00 0.00 51 1022.3
20260501185909 65 1 0.0 0.0 0.00 0.00 0.00 50 1022.2
20260501184908 66 1 0.0 0.0 0.00 0.00 0.00 48 1022.1
20260501183906 66 1 0.0 0.0 0.00 0.00 0.00 47 1021.9
20260501182906 68 1 0.0 0.0 0.00 0.00 0.00 45 1022.0
20260501181902 68 1 0.0 0.0 0.00 0.00 0.00 43 1021.9
20260501180855 69 1 0.0 0.0 0.00 0.00 0.00 41 1021.8
20260501175855 70 1 0.0 0.0 0.00 0.00 0.00 41 1021.8
20260501174847 70 1 0.0 0.0 0.00 0.00 0.00 41 1021.7
20260501173840 71 1 0.0 4.0 0.00 0.00 0.00 40 1021.6
20260501170828 72 360 2.0 3.0 0.00 0.00 0.00 40 1021.6
20260501165822 73 2 1.0 5.0 0.00 0.00 0.00 39 1021.6
20260501164816 74 348 3.0 3.0 0.00 0.00 0.00 38 1021.7